Regional Weather Roundup
Issued by NWS

Home | Current Version | Previous Version | Graphics & Text | Print | Product List | Glossary On
Versions: 1 2 3 4 5 6 7 8 9 10 11 12 13 14 15 16 17 18 19 20 21 22 23 24 25 26 27 28 29 30 31 32 33 34 35 36 37 38 39 40 41 42 43 44 45 46 47 48 49 50
000
ASUS43 KDTX 240601
RWRMI
MICHIGAN HOURLY REGIONAL WEATHER ROUNDUP
NATIONAL WEATHER SERVICE DETROIT/PONTIAC MI
100 AM EST SAT FEB 24 2018

NOTE: "FAIR" INDICATES FEW OR NO CLOUDS BELOW 12,000 FEET WITH NO
SIGNIFICANT WEATHER AND/OR OBSTRUCTION TO VISIBILITY.

MIZ047>049-052>055-059>063-066>070-074>076-081>083-240700-
SOUTHEAST LOWER MICHIGAN

CITY           SKY/WX    TMP DP  RH WIND       PRES   REMARKS
ADRIAN         CLOUDY    38  35  89 N8        30.24R WCI  32
6HR MIN TEMP:  38; 6HR MAX TEMP:  45;

ANN ARBOR      CLOUDY    38  34  85 W6        30.23R WCI  33
BAD AXE        CLOUDY    36  32  87 W5        30.21R WCI  32
6HR MIN TEMP:  36; 6HR MAX TEMP:  40;

CARO           CLOUDY    36  33  87 W5        30.22R WCI  32
DETROIT CITY   CLOUDY    40  34  79 W8        30.23R WCI  34
6HR MIN TEMP:  40; 6HR MAX TEMP:  47;

DETROIT        CLOUDY    40  34  79 N10       30.23S WCI  33
6HR MIN TEMP:  40; 6HR MAX TEMP:  47;

FLINT          CLOUDY    36  32  85 W12       30.24R WCI  28
6HR MIN TEMP:  36; 6HR MAX TEMP:  41;

GROSSE ILE     CLOUDY    41  36  83 NW6       30.22R
6HR MIN TEMP:  41; 6HR MAX TEMP:  47;

HILLSDALE      CLOUDY    36  32  87 NW10      30.22R WCI  28
HOWELL         CLOUDY    37  34  92 NW7       30.23R WCI  31
6HR MIN TEMP:  37; 6HR MAX TEMP:  42;


CITY           SKY/WX    TMP DP  RH WIND       PRES   REMARKS
JACKSON        CLOUDY    36  32  85 W9        30.23R WCI  29
6HR MIN TEMP:  36; 6HR MAX TEMP:  42;

LAMBERTVILLE   CLOUDY    40  36  85 NW3       30.23R
6HR MIN TEMP:  40; 6HR MAX TEMP:  47;

LANSING        CLOUDY    36  31  82 NW9       30.24S WCI  29
6HR MIN TEMP:  36; 6HR MAX TEMP:  40;

LAPEER         CLOUDY    37  33  84 NW5       30.23R WCI  33
6HR MIN TEMP:  37; 6HR MAX TEMP:  43;

MASON          CLOUDY    37  31  78 NW14      30.24R WCI  29
6HR MIN TEMP:  37; 6HR MAX TEMP:  42;

MONROE         CLOUDY    40  36  84 NW9       30.23R WCI  34
6HR MIN TEMP:  40; 6HR MAX TEMP:  47;

MT. CLEMENS    CLOUDY    39  39  97 NW9       30.21R WCI  33
6HR MIN TEMP:  39; 6HR MAX TEMP:  47;

PONTIAC        CLOUDY    37  33  85 NW9       30.20R WCI  30
6HR MIN TEMP:  37; 6HR MAX TEMP:  44;

PORT HOPE        N/A     37  31  78 W5        30.19R WCI  33
6HR MIN TEMP:  37; 6HR MAX TEMP:  41;

PORT HURON     CLOUDY    39  32  75 NW8       30.23R WCI  34
TRI CITIES     CLOUDY    37  31  78 W8        30.23R WCI  31
6HR MIN TEMP:  36; 6HR MAX TEMP:  40;

MIDLAND        CLOUDY    37  30  78 W5        30.22S WCI  33
6HR MIN TEMP:  37; 6HR MAX TEMP:  40;

TROY           CLOUDY    40  35  82 NW6       30.24R
SAGINAW HB     CLOUDY    36  32  87 W6        30.23R WCI  31
$$
MIZ043>046-050>051-056>058-064>065-071>073-077>080-240700-
SOUTHWEST LOWER MICHIGAN

CITY           SKY/WX    TMP DP  RH WIND       PRES   REMARKS
BATTLE CREEK   CLOUDY    36  32  85 W6        30.25R WCI  31
6HR MIN TEMP:  36; 6HR MAX TEMP:  39;

BENTON HARBOR  CLOUDY    37  31  78 VRB3      30.27R
6HR MIN TEMP:  36; 6HR MAX TEMP:  37;

BIG RAPIDS     CLOUDY    33  27  79 W3        30.23R
6HR MIN TEMP:  33; 6HR MAX TEMP:  36;

COLDWATER      CLOUDY    36  36  99 N7        30.25R WCI  31
6HR MIN TEMP:  36; 6HR MAX TEMP:  41;

FREMONT        CLOUDY    33  26  74 NW6       30.25R WCI  27
6HR MIN TEMP:  33; 6HR MAX TEMP:  36;

HOLLAND        CLOUDY    36  30  79 VRB3      30.27R
6HR MIN TEMP:  36; 6HR MAX TEMP:  38;

GRAND RAPIDS   CLOUDY    37  30  75 NW7       30.25R WCI  32
6HR MIN TEMP:  36; 6HR MAX TEMP:  38;

IONIA          CLOUDY    36  31  81 W8        30.24R WCI  30
6HR MIN TEMP:  36; 6HR MAX TEMP:  38;

KALAMAZOO      CLOUDY    37  31  78 NW8       30.26R WCI  31
6HR MIN TEMP:  37; 6HR MAX TEMP:  40;

LUDINGTON      CLOUDY    33  28  80 NW3       30.25R
6HR MIN TEMP:  33; 6HR MAX TEMP:  36;

MARSHALL       CLOUDY    36  32  87 W9        30.25R WCI  29
6HR MIN TEMP:  35; 6HR MAX TEMP:  39;

MOUNT PLEASANT CLOUDY    36  29  76 W3        30.23R
6HR MIN TEMP:  36; 6HR MAX TEMP:  38;

MUSKEGON       CLOUDY    34  27  75 NW8       30.27R WCI  27
6HR MIN TEMP:  34; 6HR MAX TEMP:  38;

SOUTH HAVEN    CLOUDY    37  31  78 CALM      30.27S
$$
MIZ016>042-240700-
NORTHERN LOWER MICHIGAN

CITY           SKY/WX    TMP DP  RH WIND       PRES   REMARKS
ALPENA         CLOUDY    33  27  78 NW13G22   30.20R WCI  24
6HR MIN TEMP:  33; 6HR MAX TEMP:  39; 6HR PCP: TRACE;

BEAVER ISLAND  CLOUDY    32  25  74 NW5       30.23R WCI  27
6HR MIN TEMP:  32; 6HR MAX TEMP:  35;

BELLAIRE       CLOUDY    33  29  85 N3        30.23R
6HR MIN TEMP:  33; 6HR MAX TEMP:  37;

CADILLAC       CLOUDY    32  29  88 NW7       30.20R WCI  25
CHARLEVOIX     MOCLDY    32  28  88 NW6       30.25R WCI  26
6HR MIN TEMP:  32; 6HR MAX TEMP:  36;

FRANKFORT      CLOUDY    34  25  68 NW5       30.24R WCI  30
GAYLORD        CLOUDY    30  27  88 VRB6      30.18R WCI  24
6HR MIN TEMP:  30; 6HR MAX TEMP:  34; 6HR PCP: TRACE;

HARBOR SPRINGS CLOUDY    30  24  79 NW5       30.22R WCI  25
HOUGHTON LAKE  CLOUDY    33  27  78 NW8       30.19R WCI  26
6HR MIN TEMP:  33; 6HR MAX TEMP:  36;

MANISTEE       CLOUDY    34  26  72 NW7       30.25R WCI  28
OSCODA         CLOUDY    36  28  73 W3        30.19R
6HR MIN TEMP:  36; 6HR MAX TEMP:  40;

PELLSTON       MOCLDY    31  23  72 NW15      30.22R WCI  20
6HR MIN TEMP:  30; 6HR MAX TEMP:  36; 6HR PCP: TRACE;

ROGERS CITY    FAIR      30  25  82 NW6       30.21R WCI  24
TRAVERSE CITY  CLOUDY    35  28  75 NW7       30.22R WCI  29
6HR MIN TEMP:  35; 6HR MAX TEMP:  39;

$$
MIZ007>008-015-240700-
EASTERN UPPER MICHIGAN

CITY           SKY/WX    TMP DP  RH WIND       PRES   REMARKS
KINROSS        CLOUDY    29  24  82 W7        30.18R WCI  22
6HR MIN TEMP:  29; 6HR MAX TEMP:  31; 6HR PCP: TRACE;

MACKINAC ISLAN CLOUDY    30  24  77 NW12G21   30.20R WCI  20
6HR MIN TEMP:  29; 6HR MAX TEMP:  33;

NEWBERRY       CLOUDY    29  25  86 W8        30.19R WCI  21
6HR MIN TEMP:  29; 6HR MAX TEMP:  31;

S. S. MARIE    CLOUDY    31  24  75 NW12      30.17R WCI  22
6HR MIN TEMP:  31; 6HR MAX TEMP:  33;

MUNISING         N/A     31  24  75 NW6       30.21S WCI  25
6HR MIN TEMP:  31; 6HR MAX TEMP:  32;

$$
MIZ004>006-011>014-085-240700-
CENTRAL UPPER MICHIGAN

CITY           SKY/WX    TMP DP  RH WIND       PRES   REMARKS
MANISTIQUE     CLOUDY    31  22  69 NW10      30.22R WCI  22
6HR MIN TEMP:  30; 6HR MAX TEMP:  32;

ESCANABA       CLOUDY    32  23  69 W9        30.23S WCI  24
6HR MIN TEMP:  32; 6HR MAX TEMP:  35;

MENOMINEE      CLOUDY    32  22  66 VRB5      30.26R WCI  27
6HR MIN TEMP:  32; 6HR MAX TEMP:  35;

SAWYER-GWINN   CLOUDY    28  21  76 W6        30.19S WCI  21
6HR MIN TEMP:  28; 6HR MAX TEMP:  29;

$$
MIZ001>003-009>011-084-240700-
WESTERN UPPER MICHIGAN

CITY           SKY/WX    TMP DP  RH WIND       PRES   REMARKS
IRON MOUNTAIN  CLOUDY    30  22  72 NW7       30.20R WCI  23
6HR MIN TEMP:  30; 6HR MAX TEMP:  32;

HOUGHTON       CLOUDY    27  20  75 W10       30.16R WCI  17
6HR MIN TEMP:  27; 6HR MAX TEMP:  29;

COPPER HARBOR    N/A     30  21  69 NW7G16    30.18R WCI  23
6HR MIN TEMP:  30; 6HR MAX TEMP:  30;

IRONWOOD       CLOUDY    28  22  78 W6        30.20S WCI  22
6HR MIN TEMP:  28; 6HR MAX TEMP:  29;

$$

ABBREVIATIONS USED IN REMARKS
   TC - TEMPERATURE IN CELSIUS
  WCI - WIND CHILL INDEX
   HX - HEAT INDEX
  VSB - VISIBILITY




USA.gov is the U.S. government's official web portal to all federal, state and local government web resources and services.